This is the latest recevied weather packets stored in our database for station/object LY3FF-10. If no packets are shown the sender has not sent any weather packets the latest 10 day(s).
| Time | Temp. | Humidity | Pressure | Rain* | Wind** | Luminosity | Snow |
|---|---|---|---|---|---|---|---|
| 1787939000 | 18.33° C | 55% | 1002.1 hPa | - | - | - | - |
| 1787938220 | 18.89° C | 54% | 1002.1 hPa | - | - | - | - |
| 1787937495 | 18.89° C | 53% | 1002.3 hPa | - | - | - | - |
| 1787936598 | 19.44° C | 52% | 1002.4 hPa | - | - | - | - |
| 1787935742 | 20° C | 50% | 1002.3 hPa | - | - | - | - |
| 1787934950 | 21.11° C | 49% | 1002.4 hPa | - | - | - | - |
| 1787934190 | 21.11° C | 47% | 1002.3 hPa | - | - | - | - |
| 1787933435 | 21.67° C | 47% | 1002.3 hPa | - | - | - | - |
| 1787932568 | 22.78° C | 46% | 1002.4 hPa | - | - | - | - |
| 1787931770 | 23.89° C | 45% | 1002.4 hPa | - | - | - | - |
| 1787931044 | 23.89° C | 43% | 1002.7 hPa | - | - | - | - |
| 1787930235 | 24.44° C | 41% | 1002.5 hPa | - | - | - | - |
| 1787929470 | 25° C | 43% | 1002.7 hPa | - | - | - | - |
| 1787928680 | 25.56° C | 43% | 1002.7 hPa | - | - | - | - |
| 1787927930 | 26.11° C | 44% | 1002.8 hPa | - | - | - | - |
| 1787927180 | 25.56° C | 45% | 1003 hPa | - | - | - | - |
| 1787926310 | 32.78° C | 44% | 1003.2 hPa | - | - | - | - |
| 1787925440 | 33.89° C | 45% | 1003.1 hPa | - | - | - | - |
| 1787924615 | 24.44° C | 46% | 1003.4 hPa | - | - | - | - |
| 1787923765 | 24.44° C | 45% | 1003.5 hPa | - | - | - | - |
| 1787923030 | 28.89° C | 47% | 1003.6 hPa | - | - | - | - |
| 1787922275 | 25° C | 46% | 1003.8 hPa | - | - | - | - |
| 1787921410 | 24.44° C | 46% | 1004.2 hPa | - | - | - | - |
| 1787920675 | 24.44° C | 47% | 1004.3 hPa | - | - | - | - |
| 1787919850 | 23.33° C | 47% | 1004.3 hPa | - | - | - | - |
* Rain since midnight (hover to see other rain measurements)
** Current wind speed in m/s (hover to see current wind gust speed)